This demonstration page uses our WeatherBlox Daily Observations layout. Learn more.

Left ArrowRight Arrow

Hourly Observations for October 8, 2022

Temp ( °F °C ) Dew Point ( °F °C ) Humidity (%) Winds ( mph kmh ) Pressure ( in mb ) Visibility ( mi km ) Precip ( " mm )
12:53 am 00:53 Cloudy 41 5 35 1.7 79 79 undefined N/A 30.52 1034 10 16 0.00 0.00
1:53 am 01:53 Cloudy 44 6.7 37 2.8 76 76 undefined N/A 30.51 1033 10 16 0.00 0.00
2:53 am 02:53 Cloudy 44 6.7 38 3.3 79 79 undefined N/A 30.50 1033 10 16 0.00 0.00
3:53 am 03:53 Mostly Cloudy 43 6.1 38 3.3 82 82 undefined N/A 30.49 1032 10 16 0.00 0.00
4:53 am 04:53 Clear 40 4.4 37 2.8 89 89 undefined N/A 30.48 1032 10 16 0.00 0.00
5:53 am 05:53 Mostly Cloudy 40 4.4 37 2.8 89 89 undefined N/A 30.48 1032 10 16 0.00 0.00
6:53 am 06:53 Partly Cloudy 40 4.4 37 2.8 89 89 undefined N/A 30.48 1032 10 16 0.00 0.00
7:53 am 07:53 Sunny 39 3.9 37 2.8 93 93 undefined N/A 30.48 1032 10 16 0.00 0.00
8:53 am 08:53 Sunny 42 5.6 38 3.3 85 85 undefined N/A 30.48 1032 10 16 0.00 0.00
9:53 am 09:53 Mostly Sunny 47 8.3 39 3.9 74 74 undefined N/A 30.47 1032 10 16 0.00 0.00
10:53 am 10:53 Sunny 51 10.6 37 2.8 58 58 undefined N/A 30.46 1032 10 16 0.00 0.00
11:53 am 11:53 Sunny 55 12.8 40 4.4 57 57 undefined N/A 30.44 1031 10 16 0.00 0.00
12:53 pm 12:53 Sunny 58 14.4 40 4.4 51 51 undefined N/A 30.41 1030 10 16 0.00 0.00
1:53 pm 13:53 Sunny 61 16.1 40 4.4 46 46 undefined N/A 30.36 1028 10 16 0.00 0.00
2:53 pm 14:53 Sunny 64 17.8 40 4.4 41 41 undefined N/A 30.32 1027 10 16 0.00 0.00
3:53 pm 15:53 Sunny 66 18.9 39 3.9 37 37 undefined N/A 30.28 1025 10 16 0.00 0.00
4:53 pm 16:53 Mostly Sunny 67 19.4 38 3.3 34 34 undefined N/A 30.27 1025 10 16 0.00 0.00
5:53 pm 17:53 Sunny 66 18.9 38 3.3 35 35 undefined N/A 30.25 1025 10 16 0.00 0.00
6:53 pm 18:53 Sunny 62 16.7 40 4.4 44 44 undefined N/A 30.24 1024 10 16 0.00 0.00
7:53 pm 19:53 Clear 56 13.3 41 5 57 57 undefined N/A 30.25 1024 10 16 0.00 0.00
8:53 pm 20:53 Clear 53 11.7 41 5 63 63 undefined N/A 30.24 1024 10 16 0.00 0.00
9:53 pm 21:53 Clear 50 10 41 5 71 71 undefined N/A 30.25 1024 10 16 0.00 0.00
10:53 pm 22:53 Clear 51 10.6 41 5 68 68 undefined N/A 30.25 1024 10 16 0.00 0.00
11:53 pm 23:53 Clear 49 9.4 41 5 74 74 undefined N/A 30.24 1024 10 16 0.00 0.00

Powered by AerisWeather